Location: Unspecified
(43.4680°N, 87.1740°E)
Time: 21:04:44
(UTC+00:00)

NOSS 3-2 (C) - Pass Details

Date: 17 April 2021
Orbit: 783 x 1429 km, 63.4° (Epoch: 11 April)

Event Time Altitude Azimuth Distance (km) Brightness Sun altitude
Rises 13:22:28 0° 322° (NW) 3,998 7.8 -5.3°
Reaches altitude 10° 13:25:02 10° 321° (NW) 3,120 7.2 -5.7°
Maximum altitude 13:32:41 79° 237° (WSW) 1,337 4.3 -7.0°
Drops below altitude 10° 13:41:18 10° 152° (SSE) 3,483 5.9 -8.4°
Enters shadow 13:44:09 - 151° (SSE) 4,436 6.4 -8.9°
